This is the latest recevied weather packets stored in our database for station/object KB9ZGZ. If no packets are shown the sender has not sent any weather packets the latest 10 day(s).
| Time | Temp. | Humidity | Pressure | Rain* | Wind** | Luminosity | Snow |
|---|---|---|---|---|---|---|---|
| 1777770036 | 11.67° C | 58% | 1014.1 hPa | 0 mm | - | - | - |
| 1777769130 | 12.78° C | 58% | 1013.9 hPa | 0 mm | - | - | - |
| 1777768229 | 13.33° C | 64% | 1013.8 hPa | 0 mm | - | - | - |
| 1777767357 | 13.33° C | 58% | 1013.9 hPa | 0 mm | - | - | - |
| 1777766457 | 13.33° C | 53% | 1013.9 hPa | 0 mm | - | - | - |
| 1777765560 | 14.44° C | 47% | 1014.1 hPa | 0 mm | - | - | - |
| 1777764653 | 15° C | 44% | 1014.1 hPa | 0 mm | - | - | - |
| 1777763764 | 15.56° C | 40% | 1014.1 hPa | 0 mm | - | - | - |
| 1777762851 | 16.11° C | 46% | 1014.1 hPa | 0 mm | - | - | - |
| 1777761948 | 16.11° C | 41% | 1014.2 hPa | 0 mm | - | - | - |
| 1777761044 | 15.56° C | 44% | 1014.1 hPa | 0 mm | - | - | - |
| 1777760142 | 15° C | 40% | 1014.1 hPa | 0 mm | - | - | - |
| 1777759241 | 15° C | 46% | 1014.1 hPa | 0 mm | - | - | - |
| 1777758342 | 14.44° C | 46% | 1014.1 hPa | 0 mm | - | - | - |
| 1777757435 | 13.89° C | 44% | 1014.2 hPa | 0 mm | - | - | - |
| 1777756537 | 13.89° C | 48% | 1014.2 hPa | 0 mm | - | - | - |
| 1777755636 | 13.89° C | 45% | 1014.4 hPa | 0 mm | - | - | - |
| 1777754731 | 14.44° C | 43% | 1014.5 hPa | 0 mm | - | - | - |
| 1777753830 | 14.44° C | 49% | 1014.6 hPa | 0 mm | - | - | - |
| 1777752929 | 14.44° C | 45% | 1014.7 hPa | 0 mm | - | - | - |
| 1777752028 | 15° C | 48% | 1014.7 hPa | 0 mm | - | - | - |
| 1777751156 | 14.44° C | 46% | 1014.8 hPa | 0 mm | - | - | - |
| 1777750255 | 14.44° C | 45% | 1014.9 hPa | 0 mm | - | - | - |
| 1777749351 | 13.89° C | 48% | 1014.9 hPa | 0 mm | - | - | - |
| 1777748447 | 13.33° C | 51% | 1015 hPa | 0 mm | - | - | - |
* Rain since midnight (hover to see other rain measurements)
** Current wind speed in m/s (hover to see current wind gust speed)